Location: Unspecified
(0.0000°N, 0.0000°E)
Time: 20:11:59
(UTC+00:00)

SRMSAT - Pass Details

Date: 23 July 2019
Orbit: 848 x 866 km, 20.0° (Epoch: 19 August)

Event Time Altitude Azimuth Distance (km) Brightness Sun altitude
Rises 20:50:08 0° 305° (NW) 3,424 ? -38.0°
Reaches altitude 10° 20:55:22 10° 343° (NNW) 2,485 ? -39.1°
Maximum altitude 20:56:32 11° 355° (N) 2,445 ? -39.4°
Enters shadow 20:56:44 11° 357° (N) 2,446 ? -39.5°
